When you browse on this site, cookies collect data to enhance your experience and personalize the content and advertising you see.
Visit our Privacy Policy to learn more. By continuing to use the site, you agree to this use of cookies and data.
  • en France
  • Liste des pays
  • À 7 jours
  • Température de l'eau
  • Carte météo
  • Widgets météo
  • user-avatar
    Se connecter

    Météo par heure à Wuxue

    Ce jour, 18 Septembre, Mercredi

    Heure Température Précipitation Vent Pression Humidité
    00:00 +24°C° 0 mm 1 m/s 760 mmHg 73%
    01:00 +24°C° 0 mm 1 m/s 760 mmHg 76%
    02:00 +23°C° 0 mm 1 m/s 760 mmHg 78%
    03:00 +23°C° 0 mm 1 m/s 760 mmHg 80%
    04:00 +22°C° 0 mm 1 m/s 760 mmHg 81%
    05:00 +22°C° 0 mm 1 m/s 760 mmHg 82%
    06:00 +23°C° 0 mm 2 m/s 761 mmHg 80%
    07:00 +24°C° 0 mm 2 m/s 761 mmHg 77%
    08:00 +24°C° 0 mm 2 m/s 762 mmHg 75%
    09:00 +25°C° 0 mm 2 m/s 762 mmHg 70%
    10:00 +26°C° 0 mm 3 m/s 762 mmHg 65%
    11:00 +27°C° 0 mm 4 m/s 762 mmHg 61%
    12:00 +28°C° 0 mm 4 m/s 762 mmHg 58%
    13:00 +28°C° 0 mm 4 m/s 762 mmHg 56%
    14:00 +28°C° 0 mm 4 m/s 761 mmHg 53%
    15:00 +28°C° 0 mm 4 m/s 761 mmHg 56%
    16:00 +27°C° 0 mm 4 m/s 761 mmHg 58%
    17:00 +26°C° 0 mm 3 m/s 761 mmHg 61%
    18:00 +26°C° 0 mm 3 m/s 761 mmHg 61%
    19:00 +25°C° 0 mm 2 m/s 762 mmHg 61%
    20:00 +25°C° 0 mm 2 m/s 762 mmHg 62%
    21:00 +24°C° 0 mm 2 m/s 762 mmHg 63%
    22:00 +23°C° 0 mm 1 m/s 762 mmHg 64%
    23:00 +23°C° 0 mm 1 m/s 762 mmHg 66%

    Demain, 19 Septembre, Jeudi

    Heure Température Précipitation Vent Pression Humidité
    00:00 +22°C° 0 mm 1 m/s 762 mmHg 69%
    01:00 +22°C° 0 mm 1 m/s 762 mmHg 71%
    02:00 +21°C° 0 mm 1 m/s 761 mmHg 74%
    03:00 +21°C° 0 mm 1 m/s 761 mmHg 79%
    04:00 +19°C° 0 mm 2 m/s 761 mmHg 83%
    05:00 +19°C° 0 mm 2 m/s 761 mmHg 88%
    06:00 +20°C° 0 mm 2 m/s 761 mmHg 83%
    07:00 +21°C° 0 mm 3 m/s 762 mmHg 78%
    08:00 +21°C° 0 mm 4 m/s 762 mmHg 73%
    09:00 +23°C° 0 mm 4 m/s 762 mmHg 65%
    10:00 +25°C° 0 mm 4 m/s 762 mmHg 57%
    11:00 +27°C° 0 mm 4 m/s 762 mmHg 49%
    12:00 +28°C° 0 mm 4 m/s 761 mmHg 46%
    13:00 +28°C° 0 mm 4 m/s 760 mmHg 43%
    14:00 +29°C° 0 mm 4 m/s 760 mmHg 41%
    15:00 +28°C° 0 mm 4 m/s 759 mmHg 44%
    16:00 +27°C° 0 mm 4 m/s 759 mmHg 47%
    17:00 +26°C° 0 mm 4 m/s 758 mmHg 50%
    18:00 +25°C° 0 mm 4 m/s 759 mmHg 53%
    19:00 +22°C° 0 mm 3 m/s 759 mmHg 56%
    20:00 +20°C° 0 mm 3 m/s 759 mmHg 59%
    21:00 +20°C° 0 mm 2 m/s 760 mmHg 61%
    22:00 +19°C° 0 mm 2 m/s 760 mmHg 62%
    23:00 +19°C° 0 mm 2 m/s 760 mmHg 64%

    Après-demain, 20 Septembre, Vendredi

    Heure Température Précipitation Vent Pression Humidité
    00:00 +19°C° 0 mm 1 m/s 760 mmHg 66%
    01:00 +19°C° 0 mm 1 m/s 759 mmHg 67%
    02:00 +18°C° 0 mm 1 m/s 759 mmHg 69%
    03:00 +18°C° 0 mm 1 m/s 759 mmHg 71%
    04:00 +16°C° 0 mm 0 m/s 759 mmHg 72%
    05:00 +15°C° 0 mm 0 m/s 759 mmHg 73%
    06:00 +19°C° 0 mm 1 m/s 759 mmHg 70%
    07:00 +20°C° 0 mm 1 m/s 759 mmHg 68%
    08:00 +21°C° 0 mm 1 m/s 760 mmHg 65%
    09:00 +23°C° 0 mm 1 m/s 759 mmHg 60%
    10:00 +25°C° 0 mm 1 m/s 759 mmHg 55%
    11:00 +27°C° 0 mm 1 m/s 759 mmHg 50%
    12:00 +28°C° 0 mm 2 m/s 758 mmHg 47%
    13:00 +29°C° 0 mm 2 m/s 758 mmHg 43%
    14:00 +29°C° 0 mm 3 m/s 757 mmHg 40%
    15:00 +29°C° 0 mm 3 m/s 757 mmHg 43%
    16:00 +28°C° 0 mm 2 m/s 757 mmHg 46%
    17:00 +28°C° 0 mm 2 m/s 757 mmHg 49%
    18:00 +26°C° 0 mm 2 m/s 757 mmHg 52%
    19:00 +24°C° 0 mm 2 m/s 757 mmHg 56%
    20:00 +22°C° 0 mm 1 m/s 758 mmHg 59%
    21:00 +22°C° 0 mm 1 m/s 758 mmHg 60%
    22:00 +21°C° 0 mm 1 m/s 758 mmHg 61%
    23:00 +21°C° 0 mm 1 m/s 758 mmHg 62%

    21 Septembre, Samedi

    Heure Température Précipitation Vent Pression Humidité
    00:00 +20°C° 0 mm 1 m/s 758 mmHg 64%
    01:00 +20°C° 0 mm 1 m/s 758 mmHg 66%
    02:00 +20°C° 0 mm 1 m/s 758 mmHg 67%
    03:00 +19°C° 0 mm 1 m/s 758 mmHg 69%
    04:00 +19°C° 0 mm 1 m/s 758 mmHg 71%
    05:00 +19°C° 0 mm 1 m/s 758 mmHg 73%
    06:00 +20°C° 0 mm 1 m/s 758 mmHg 70%
    07:00 +21°C° 0 mm 1 m/s 759 mmHg 68%
    08:00 +22°C° 0 mm 1 m/s 759 mmHg 65%
    09:00 +24°C° 0 mm 1 m/s 759 mmHg 60%
    10:00 +25°C° 0 mm 1 m/s 759 mmHg 54%
    11:00 +27°C° 0 mm 2 m/s 759 mmHg 49%
    12:00 +28°C° 0 mm 2 m/s 758 mmHg 45%
    13:00 +29°C° 0 mm 2 m/s 758 mmHg 42%
    14:00 +30°C° 0 mm 2 m/s 758 mmHg 38%
    15:00 +29°C° 0 mm 2 m/s 758 mmHg 41%
    16:00 +29°C° 0 mm 2 m/s 758 mmHg 43%
    17:00 +28°C° 0 mm 3 m/s 758 mmHg 46%
    18:00 +26°C° 0 mm 2 m/s 758 mmHg 49%
    19:00 +24°C° 0 mm 2 m/s 759 mmHg 51%
    20:00 +22°C° 0 mm 1 m/s 759 mmHg 54%
    21:00 +21°C° 0 mm 1 m/s 759 mmHg 55%
    22:00 +20°C° 0 mm 1 m/s 760 mmHg 57%
    23:00 +20°C° 0 mm 1 m/s 760 mmHg 59%

    22 Septembre, Dimanche

    Heure Température Précipitation Vent Pression Humidité
    00:00 +19°C° 0 mm 1 m/s 760 mmHg 60%
    01:00 +17°C° 0 mm 0 m/s 760 mmHg 62%
    02:00 +17°C° 0 mm 0 m/s 760 mmHg 63%
    03:00 +19°C° 0 mm 1 m/s 760 mmHg 65%
    04:00 +18°C° 0 mm 1 m/s 761 mmHg 67%
    05:00 +18°C° 0 mm 1 m/s 761 mmHg 68%
    06:00 +19°C° 0 mm 1 m/s 761 mmHg 66%
    07:00 +20°C° 0 mm 1 m/s 762 mmHg 64%
    08:00 +22°C° 0 mm 1 m/s 762 mmHg 62%
    09:00 +24°C° 0 mm 1 m/s 762 mmHg 57%
    10:00 +26°C° 0 mm 2 m/s 762 mmHg 51%
    11:00 +28°C° 0 mm 2 m/s 762 mmHg 45%
    12:00 +29°C° 0 mm 2 m/s 762 mmHg 42%
    13:00 +29°C° 0 mm 2 m/s 761 mmHg 40%
    14:00 +30°C° 0 mm 2 m/s 761 mmHg 37%
    15:00 +29°C° 0 mm 3 m/s 761 mmHg 41%
    16:00 +28°C° 0 mm 3 m/s 761 mmHg 44%
    17:00 +27°C° 0 mm 3 m/s 761 mmHg 48%
    18:00 +26°C° 0 mm 2 m/s 761 mmHg 51%
    19:00 +24°C° 0 mm 2 m/s 761 mmHg 53%
    20:00 +22°C° 0 mm 1 m/s 762 mmHg 56%
    21:00 +21°C° 0 mm 1 m/s 762 mmHg 58%
    22:00 +19°C° 0 mm 0 m/s 762 mmHg 60%
    23:00 +18°C° 0 mm 0 m/s 762 mmHg 62%

    23 Septembre, Lundi

    Heure Température Précipitation Vent Pression Humidité
    00:00 +18°C° 0 mm 0 m/s 763 mmHg 63%
    01:00 +17°C° 0 mm 0 m/s 763 mmHg 65%
    02:00 +17°C° 0 mm 0 m/s 763 mmHg 66%
    03:00 +17°C° 0 mm 0 m/s 763 mmHg 67%
    04:00 +16°C° 0 mm 0 m/s 763 mmHg 68%
    05:00 +16°C° 0 mm 0 m/s 763 mmHg 69%
    06:00 +18°C° 0 mm 0 m/s 763 mmHg 65%
    07:00 +19°C° 0 mm 0 m/s 764 mmHg 62%
    08:00 +21°C° 0 mm 0 m/s 764 mmHg 58%
    09:00 +25°C° 0 mm 1 m/s 764 mmHg 52%
    10:00 +27°C° 0 mm 1 m/s 764 mmHg 46%
    11:00 +29°C° 0 mm 2 m/s 764 mmHg 40%
    12:00 +29°C° 0 mm 2 m/s 764 mmHg 38%
    13:00 +30°C° 0 mm 3 m/s 763 mmHg 35%
    14:00 +31°C° 0 mm 3 m/s 762 mmHg 33%
    15:00 +30°C° 0 mm 3 m/s 762 mmHg 37%
    16:00 +29°C° 0 mm 3 m/s 762 mmHg 41%
    17:00 +28°C° 0 mm 3 m/s 761 mmHg 46%
    18:00 +26°C° 0 mm 3 m/s 762 mmHg 48%
    19:00 +25°C° 0 mm 3 m/s 762 mmHg 51%
    20:00 +22°C° 0 mm 3 m/s 763 mmHg 54%
    21:00 +21°C° 0 mm 2 m/s 763 mmHg 55%
    22:00 +20°C° 0 mm 2 m/s 763 mmHg 57%
    23:00 +20°C° 0 mm 1 m/s 763 mmHg 59%
    Voir plus